sat.trackr.live / text

‹ back to catalog

STARLINK-35411

NORAD 66560 · 2025-268D

PAYLOAD ACTIVE UNKNOWN

§ Identity

Operator
Country
US
Launch date
2025-11-21
Launch site
AFETR
Launch vehicle
Mass (kg)
RCS (m²)

Purposes: comms

External: N2YO · Heavens-Above · Gunter

§ Orbital elements

Epoch: 2026-05-25T02:09:58.243680Z

Period
94.27 min
Inclination
43.0026°
Eccentricity
0.0003770
Mean motion
15.27593177 rev/d
Perigee alt
480.4 km
Apogee alt
485.6 km
Semi-major
6,861.1 km
B*
7.4675e-4
RAAN
275.6443°
Arg perigee
267.5154°
Mean anomaly
92.5266°
Rev number
2,964

§ Raw data

STARLINK-354111 66560U 25268D   26145.09025745  .00020354  00000+0  74675-3 0  99912 66560  43.0026 275.6443 0003770 267.5154  92.5266 15.27593177 29646

JSON: /api/v1/satellites/66560 · /tle

For live sub-satellite position, see the globe view (requires WebGL).

§ Visibility from observer

Set your observer location to see the next 7 days of passes ≥ 10°. The values pass through the URL so the page stays shareable.

No JS? Fill the form by hand. The geolocation button needs JavaScript.